Regional Weather Roundup
Issued by NWS

Home | Current Version | Previous Version | Graphics & Text | Print | Product List | Glossary On
Versions: 1 2 3 4 5 6 7 8 9 10 11 12 13 14 15 16 17 18 19 20 21 22 23 24 25 26 27 28 29 30 31 32 33 34 35 36 37 38 39 40 41 42 43 44 45 46 47 48 49 50
769
ASUS43 KBIS 260802
RWRND

NORTH DAKOTA REGIONAL WEATHER ROUNDUP
NATIONAL WEATHER SERVICE BISMARCK ND
300 AM CDT THU MAY 26 2016

NOTE: "FAIR" INDICATES FEW OR NO CLOUDS BELOW 12,000 FEET WITH NO
SIGNIFICANT WEATHER AND/OR OBSTRUCTIONS TO VISIBILITY.


NDZ001>003-009>011-017-260900-
NORTHWEST NORTH DAKOTA

CITY           SKY/WX    TMP DP  RH WIND       PRES   REMARKS
WILLISTON      CLEAR     46  44  93 CALM      29.81S
MINOT          CLOUDY    58  54  86 SW9       29.73F
MINOT AFB      FOG       54  54  99 NW6       29.72F VSB 1/2
$$

NDZ018>021-031>035-040>046-260900-
SOUTHWEST NORTH DAKOTA

CITY           SKY/WX    TMP DP  RH WIND       PRES   REMARKS
BISMARCK       CLEAR     49  47  93 SW3       29.81R
DICKINSON      CLEAR     42  39  89 W8        29.81S
GARRISON         N/A     53  50  89 W13       29.77R
HETTINGER ARPT CLEAR     39  36  89 CALM      29.86S
$$

NDZ004>008-012>016-024-026-027-054-260900-
NORTHEAST NORTH DAKOTA

CITY           SKY/WX    TMP DP  RH WIND       PRES   REMARKS
GRAND FORKS    CLOUDY    57  55  93 S5        29.69S
GRND FRKS AFB  CLOUDY    56  56 100 W2        29.69S
DEVILS LAKE    MOCLDY    53  53 100 NW8       29.71F
$$

NDZ022-023-025-028>030-036>039-047>053-260900-
SOUTHEAST NORTH DAKOTA

CITY           SKY/WX    TMP DP  RH WIND       PRES   REMARKS
FARGO          FOG       53  51  93 SE3       29.72S VSB 1
JAMESTOWN      CLEAR     54  53  97 SW5       29.72F
$$





USA.gov is the U.S. government's official web portal to all federal, state and local government web resources and services.